Location: Clyde
(45.1830°S, 169.3170°E)
Time: 10:17:36
(UTC+12:00)

BREEZE-M DEB - Pass Details

Date: 14 May 2021
Orbit: 280 x 15959 km, 49.5° (Epoch: 15 June)

Event Time Altitude Azimuth Distance (km) Brightness Sun altitude
Rises 19:02:01 0° 293° (WNW) 3,369 8.4 -17.1°
Reaches altitude 10° 19:05:14 10° 292° (WNW) 1,695 6.5 -17.7°
Enters shadow 19:08:12 80° 239° (WSW) 335 1.7 -18.2°
